TITAN 3C TRANSTAGE DEB, 28553

Orbit data source: Space-Track

TITAN 3C TRANSTAGE DEB, 28553 is space debris in HEO originally from a launch on Tue, 21 Dec 1965 UTC launched from the Air Force Eastern Test Range (AFETR). Debris objects in space refer to the collection of defunct objects orbiting the Earth. Examples of debris include non-operational satellites, rocket bodies, and fragments generated from explosions, collisions, or faulty payload assembly.

Loading next visibility...
Identifier
28553, 1965-108BU
Orbit
HEO
Country
Flag of USUS
Related business
Manufacturer
Unknown
Mission
Spacecraft
Bus & Motor
Unknown
Mass
Unknown
Launch date (UTC)
1965-12-21 (60 years ago)
Launch vehicle
Unknown
Launch site
Air Force Eastern Test Range (AFETR)
Object type
Payload
Rocket body
Debris
Shape & HBR
Unknown shape, 0.1 m
Radar Cross Section
Small (<0.1 m²)

Expand to show TLE details & history
Last TLE update: 6 months ago

TLE from 6 months ago
0 TITAN 3C TRANSTAGE DEB
1 28553U 65108BU  25311.42991332  .00000046  00000-0  81786-3 0  9991
2 28553  26.6303 277.8000 6780846 250.8644 336.3340  2.72816909215045
Epoch: 2025-11-07T10:19Z
TLE epoch observation values (Epoch: 2025-11-07T10:19:04.510Z)
Latitude
12.98017°
Longitude
-131.20433°
Altitude
7,057.328 km
Speed
6.396 km/s
True Right ascension
04h 41m 45s
True Declination
12° 56' 25"
Sunlit
Object was in full shadow at epoch
Visualization orbit readout
Latitude
Unknown
Longitude
Unknown
Altitude
Unknown
Speed
Unknown
Apparent Right ascension
Unknown
Apparent Declination
Unknown
Sunlit
N/A
Visualization observer readout
Local Sidereal Time
07:36:55
Azimuth
Unknown
Elevation
Unknown
Doppler factor
Unknown
Orbital elements
Apogee altitude
29,933.041 km
Perigee altitude
587.619 km
Semi-major axis
21,638.467 km
Eccentricity
0.67808
Inclination
26.6303°
RAAN
277.8°
Arg. of periapsis
250.8644°
True anomaly
259.19786°
Mean anomaly
336.334°
Eccentric anomaly
304.20125°
Mean motion
0.68187 °/min
Orbital period
527.96 mins
BSTAR
0.00081786
Loading maneuver chart data...
Computing Atmospheric mass density...

Documentation

Showing up to 5 results
|